Home   Weather   Arequipa   Past weeks

Flag for Peru Past Weather in Arequipa, Arequipa, Peru — Yesterday and Last 2 Weeks

Now
52 °F

Clear.


Feels Like: 50 °F
Forecast: 49 / 72 °F
Wind: 6 mph from North

Location: Arequipa Airport

Current Time: Jul 28, 2017 at 1:54:51 am

Latest Report: Jul 28, 2017 at 1:00 am


Visibility: 10 mi

Pressure: 30.30 "Hg (22.85 "Hg at 2345m altitude)

Humidity: 28%

Dew Point: 19 °F

Location of ArequipaLocation

Past Weather in Arequipa — Graph

°F

Arequipa Temperature Yesterday

Maximum temperature yesterday: 72 °F (at 10:00 am)
Minimum temperature yesterday: 48 °F (at 5:00 am)
Average temperature yesterday: 60 °F

High & Low Weather Summary for the Past Weeks

 TemperatureHumidityPressure
High73 °F (Jul 26, 11:00 am)49% (Jul 15, 4:00 am)30.45 "Hg (Jul 15, 4:00 am)
Low43 °F (Jul 15, 4:00 am)8% (Jul 20, 9:00 am)30.24 "Hg (Jul 20, 3:00 pm)
Average57 °F22%30.34 "Hg
* Reported Jul 13 1:00 am — Jul 28 1:00 am, Arequipa. Weather by CustomWeather, © 2017

Note: Actual official high and low records may vary slightly from our data, if they occured in-between our weather recording intervals... More about our weather records

Advertising

Arequipa Weather History for the Previous 24 Hours

Scroll right to see more
 ConditionsComfort  
Time TempWeatherWind HumidityBarometerVisibility
1:00 am
Fri, Jul 28
52 °FClear.6 mph28%30.30 "Hg10 mi
12:00 am54 °FClear.7 mph28%30.33 "Hg10 mi
11:00 pm
Thu, Jul 27
54 °FClear.6 mph28%30.33 "Hg10 mi
10:00 pm54 °FClear.6 mph28%30.33 "Hg10 mi
9:00 pm55 °FClear.6 mph31%30.33 "Hg10 mi
8:00 pm59 °FClear.6 mph31%30.30 "Hg10 mi
7:00 pm59 °FClear.No wind34%30.30 "Hg10 mi
6:00 pm63 °FClear.3 mph32%30.27 "Hg10 mi
5:00 pm66 °FSunny.8 mph26%30.27 "Hg10 mi
4:00 pm70 °FPassing clouds.9 mph15%30.27 "HgN/A
3:00 pm70 °FPassing clouds.9 mph13%30.24 "HgN/A
2:00 pm72 °FPassing clouds.12 mph12%30.27 "HgN/A
1:00 pm72 °FSunny.12 mph11%30.27 "Hg10 mi
12:00 pm72 °FPassing clouds.10 mph10%30.30 "HgN/A
11:00 am72 °FPassing clouds.9 mph10%30.30 "HgN/A
10:00 am72 °FPassing clouds.8 mph10%30.33 "HgN/A
9:00 am70 °FSunny.1 mph11%30.33 "Hg10 mi
8:00 am64 °FPassing clouds.5 mph13%30.30 "HgN/A
7:00 am52 °FSunny.9 mph19%30.30 "Hg10 mi
6:00 am48 °FClear.12 mph23%30.27 "Hg10 mi
5:00 am48 °FClear.8 mph21%30.27 "Hg10 mi
4:00 am50 °FClear.7 mph22%30.27 "Hg10 mi
3:00 am50 °FClear.7 mph22%30.27 "Hg10 mi
2:00 am50 °FClear.9 mph20%30.27 "Hg10 mi
1:00 am54 °FClear.8 mph21%30.30 "Hg10 mi
Weather by CustomWeather, © 2017

See weather overviewHow to use our weather pages